ELECTRON KICK STAGE R/B, 62407

Orbit data source: Space-Track

ELECTRON KICK STAGE R/B, 62407 is space debris in SSO originally from a launch on Sat, 21 Dec 2024 UTC launched from the Rocket Lab Launch Complex (RLLC). Debris objects in space refer to the collection of defunct objects orbiting the Earth. Examples of debris include non-operational satellites, rocket bodies, and fragments generated from explosions, collisions, or faulty payload assembly.

Loading next visibility...
Identifier
62407, 2024-248B
Orbit
SSO
Country
Flag of USUS
Related business
Manufacturer
Rocket Lab
Mission
Spacecraft
Bus & Motor
KICK STAGE, CURIE
Mass
~50 kg wet, ~50 kg dry
Launch date (UTC)
2024-12-21 (1 year ago)
Launch vehicle
Unknown
Launch site
Rocket Lab Launch Complex (RLLC)
Object type
Payload
Rocket body
Debris
Shape & HBR
Trunc Cone, 0.7 m
Radar Cross Section
0.760 m², Medium (>0.1 m² and < 1m²)

Expand to show TLE details & history
Last TLE update: 15 hours ago

TLE from 15 hours ago
0 ELECTRON KICK STAGE R/B
1 62407U 24248B   26171.34781911  .00011375  00000-0  39288-3 0  9990
2 62407  97.6188 139.6437 0035538 282.8390  76.8880 15.29502366 82926
Epoch: 2026-06-20T08:20Z
TLE epoch observation values (Epoch: 2026-06-20T08:20:51.571Z)
Latitude
-0.00001°
Longitude
105.86508°
Altitude
474.95 km
Speed
7.631 km/s
True Right ascension
09h 18m 34s
True Declination
0° 00' 00"
Sunlit
Object was in daylight at epoch
Visualization orbit readout
Latitude
Unknown
Longitude
Unknown
Altitude
Unknown
Speed
Unknown
Apparent Right ascension
Unknown
Apparent Declination
Unknown
Sunlit
N/A
Visualization observer readout
Local Sidereal Time
10:18:53
Azimuth
Unknown
Elevation
Unknown
Doppler factor
Unknown
Orbital elements
Apogee altitude
498.613 km
Perigee altitude
449.909 km
Semi-major axis
6,852.398 km
Eccentricity
0.00355
Inclination
97.6188°
RAAN
139.6437°
Arg. of periapsis
282.839°
True anomaly
77.28502°
Mean anomaly
76.888°
Eccentric anomaly
77.08647°
Mean motion
3.8263 °/min
Orbital period
94.09 mins
BSTAR
0.00039288
Loading maneuver chart data...
Computing Atmospheric mass density...
Loading historical data...
Loading historical data...
Loading historical data...
Loading historical data...
Loading historical data...
Loading historical data...
Loading historical data...
Other satellites on launch #248 in the year 2024 (2024-12-21 UTC)

Documentation

Showing up to 5 results
|